Theta_e
338 338 339 341 342 343 345 346 346 347 348 348 348 348 348 348 349 348 349 350 349 350 349 348 348 348 348 349 349 349 350 350 351 349 351 354 357 358 358 357 358 358 360 357 354 362 357 357 358 359 360 358 358 355 355 354 355 355 356 355 352 349 348 351 352 343 335 335 335 336 335 341 347 345 342 342 344 345 349 350 350 351 349 349 350
338 337 338 339 340 341 343 344 346 344 346 347 347 347 348 349 348 350 349 350 348 350 350 349 349 349 348 349 349 349 349 350 350 348 350 352 356 358 359 357 358 358 360 358 355 357 355 355 356 357 359 357 356 358 355 361 357 356 356 352 355 348 346 351 352 341 335 331 330 331 332 331 344 339 340 339 341 343 346 346 348 349 348 348 349
336 337 338 338 339 340 341 343 344 345 346 347 348 347 347 348 348 351 350 349 348 350 351 349 350 351 349 349 350 349 351 352 351 352 351 351 356 357 359 358 358 358 359 360 356 356 355 355 355 357 359 359 356 357 355 353 353 354 353 351 349 352 351 354 349 339 333 336 334 329 324 324 331 329 335 337 338 338 342 344 348 348 349 347 348
334 335 336 337 339 339 340 341 343 344 345 346 347 347 347 348 348 350 350 350 349 351 353 351 351 351 350 350 351 351 350 351 351 352 350 353 355 357 358 359 358 358 359 359 358 356 355 356 356 357 359 360 356 356 355 353 353 352 354 353 349 345 347 348 353 346 341 334 327 326 323 321 319 322 326 329 335 336 339 341 346 347 347 346 346
334 335 336 337 337 338 339 340 342 343 344 345 346 347 347 347 348 350 350 350 349 353 353 352 353 350 350 350 351 350 351 349 348 348 349 352 355 356 357 359 359 359 359 359 358 356 355 356 357 358 359 360 358 356 356 356 355 354 355 354 350 347 345 345 349 348 342 339 335 329 322 319 318 320 324 324 335 332 335 338 343 344 345 344 345
335 335 336 337 337 339 339 340 341 342 343 345 347 348 348 347 349 350 350 350 350 352 353 353 352 349 348 346 344 345 344 345 344 345 345 349 354 356 357 359 359 359 359 358 358 358 356 356 359 359 359 360 359 357 357 357 358 356 357 355 351 349 347 342 342 351 344 347 338 333 326 320 322 325 321 319 333 334 332 334 338 341 343 343 342
336 336 337 337 337 338 339 340 341 341 342 346 347 347 348 348 349 350 350 350 351 353 353 354 351 350 348 347 346 345 344 345 347 347 347 348 355 355 356 358 359 358 358 358 358 358 357 356 359 359 360 360 362 358 357 358 360 359 359 355 353 354 346 341 341 342 342 342 347 343 344 345 332 323 318 323 322 326 330 331 332 335 338 340 339
335 335 336 337 338 338 338 340 341 342 343 345 346 347 347 348 349 350 351 352 351 353 353 353 350 350 348 347 347 346 345 345 346 347 347 349 352 355 355 357 358 358 358 357 357 358 358 357 358 360 360 360 362 359 358 359 360 359 359 357 354 354 346 343 342 338 339 336 340 336 342 345 337 334 329 324 321 321 323 328 331 332 334 337 338
336 335 336 336 337 339 340 340 341 343 343 344 345 346 347 348 349 350 350 352 351 353 353 352 352 350 349 348 346 347 347 347 348 347 347 350 349 353 354 356 357 357 357 357 356 357 359 358 358 359 360 360 363 360 359 360 359 357 356 355 353 353 347 345 344 339 335 334 334 334 335 334 336 337 339 335 327 320 322 323 325 331 331 332 335
337 337 337 337 338 340 341 342 342 343 344 346 346 347 347 347 348 349 349 352 352 352 353 352 352 352 349 348 346 345 348 347 347 346 347 347 346 350 353 354 355 355 356 356 356 356 357 358 359 359 360 361 362 360 360 359 359 357 357 355 354 353 349 349 345 341 337 335 334 333 333 333 330 329 330 328 328 325 322 323 324 325 324 327 333
336 337 337 338 339 340 341 341 341 343 344 345 345 345 346 346 347 347 349 351 352 352 352 351 351 351 349 348 347 345 346 347 345 345 346 347 345 347 351 353 354 354 355 355 356 356 356 359 360 359 361 362 362 360 359 359 360 358 358 356 354 352 349 349 351 345 341 340 334 332 332 331 328 327 326 330 327 325 323 324 324 327 326 325 330
337 337 337 337 337 338 340 340 341 343 344 344 344 345 346 346 347 347 347 350 351 352 352 351 351 351 350 348 347 347 347 348 346 344 345 347 346 345 350 352 352 354 354 354 355 356 356 357 360 360 361 361 361 360 360 360 360 359 357 355 354 352 352 351 348 344 342 341 337 333 332 335 334 330 330 333 331 327 326 324 325 326 329 328 333
336 336 337 337 336 337 338 340 340 342 343 344 344 345 345 346 346 346 346 349 350 352 351 351 351 350 350 348 348 348 347 348 348 346 346 347 347 345 347 350 351 352 353 352 354 355 355 356 358 359 360 361 361 360 360 360 360 359 357 355 353 351 351 351 346 343 343 339 338 336 333 339 338 336 336 338 334 331 328 326 331 330 325 327 331
336 337 337 337 337 337 339 340 341 342 343 344 345 345 345 346 346 346 346 348 350 351 351 350 350 350 350 349 348 349 348 348 349 347 347 347 349 347 346 350 351 352 353 353 354 355 356 357 359 359 360 360 361 360 360 360 359 358 357 354 353 353 352 351 348 345 341 341 338 337 336 335 337 340 338 337 338 334 329 328 330 328 329 328 329
337 337 337 337 338 338 339 340 341 342 343 344 345 345 345 345 346 346 346 348 349 350 351 350 350 350 350 350 349 348 349 348 349 350 348 347 349 349 347 349 352 353 354 355 355 355 355 356 359 359 360 360 360 360 360 359 358 358 358 355 354 355 352 352 348 345 343 342 339 336 337 335 335 337 337 337 338 336 333 332 330 326 326 327 328
336 337 337 338 338 339 339 340 341 342 343 345 345 346 346 345 346 346 346 348 348 350 350 350 349 350 349 349 349 349 350 350 349 350 351 349 349 350 350 350 352 354 355 355 355 355 355 355 358 359 359 360 360 360 359 358 357 356 356 356 354 357 353 351 349 345 344 342 341 338 336 335 336 337 338 336 337 336 336 335 332 328 325 321 324
336 337 337 338 339 339 340 341 341 342 343 344 345 346 347 346 347 346 346 347 348 350 350 350 350 349 349 349 349 349 349 349 349 349 351 352 351 350 351 352 353 354 355 356 355 355 355 355 356 358 359 360 360 360 360 358 357 356 356 355 354 355 354 351 349 346 344 343 342 339 337 336 336 337 338 337 335 336 336 335 334 330 328 325 322
336 337 338 339 339 339 340 341 342 343 343 344 345 347 348 348 348 347 347 346 348 349 350 350 349 349 349 349 350 350 350 350 351 350 351 352 352 351 351 352 353 355 356 357 356 355 354 360 356 357 358 360 360 360 360 359 357 356 356 355 356 355 354 353 351 347 344 344 344 342 339 337 338 339 340 341 336 335 335 335 334 333 331 328 325
335 336 337 338 338 339 340 341 343 343 345 345 346 348 349 349 349 349 348 348 349 350 351 351 350 350 350 349 350 350 351 351 352 352 352 352 352 352 351 352 354 355 356 356 356 355 354 356 357 357 357 358 360 359 360 359 357 356 356 355 355 355 353 352 351 348 345 345 344 342 341 340 339 339 340 340 343 337 338 336 334 334 333 331 328
334 336 337 338 339 339 340 341 342 343 344 345 347 348 348 349 350 350 350 350 350 350 351 351 351 350 350 351 351 351 351 351 351 352 352 352 353 354 353 352 353 356 356 357 356 356 355 354 356 357 357 358 358 359 359 359 358 356 355 355 355 354 353 352 351 349 348 345 344 343 342 341 341 339 340 340 340 340 339 338 337 335 334 333 331
334 336 337 338 339 339 340 341 343 345 345 346 347 347 349 350 350 351 350 350 350 350 351 351 352 351 351 350 350 351 351 352 351 352 351 352 353 355 355 354 354 355 357 356 356 356 355 355 355 357 357 357 357 358 359 359 357 356 355 355 355 354 353 352 351 349 347 345 345 344 344 343 342 339 339 339 340 341 338 339 339 337 335 335 333
334 336 337 338 339 339 340 341 343 344 345 345 347 348 349 350 351 351 351 351 350 351 351 352 352 352 351 350 351 352 352 352 351 351 351 351 351 353 355 355 354 354 357 357 356 357 356 356 355 355 357 357 357 357 359 359 357 356 355 356 356 354 353 352 351 349 347 347 345 344 344 344 342 341 340 339 339 341 340 337 337 338 336 336 336
334 335 337 338 339 339 340 340 341 343 344 345 346 347 348 350 351 352 351 351 352 352 352 352 352 352 352 352 351 351 352 352 351 351 351 351 351 351 354 356 356 355 357 358 357 356 356 355 355 355 356 357 357 357 358 358 358 357 356 356 356 355 354 353 351 350 349 347 345 344 344 345 345 341 340 340 339 340 341 339 337 338 336 336 337
334 336 337 338 339 340 339 339 340 341 343 344 345 346 348 350 351 352 352 352 352 353 353 352 352 352 352 352 351 352 351 352 351 352 352 352 352 352 352 353 356 357 357 357 358 358 357 355 355 355 355 356 357 357 357 358 358 357 357 356 356 356 355 354 353 352 350 348 346 345 344 345 345 343 341 340 339 339 340 339 338 337 337 336 337
333 334 335 336 337 337 338 339 340 341 343 344 345 345 347 348 351 352 353 353 353 354 353 353 352 351 352 351 351 351 351 351 351 352 352 352 352 352 352 352 353 356 358 357 357 358 357 356 355 354 355 355 356 357 357 357 358 358 358 357 356 356 356 355 354 354 355 349 347 346 346 345 344 343 343 341 339 337 339 339 338 337 337 338 338
332 333 334 334 336 337 338 339 340 341 342 343 344 345 346 348 350 353 353 354 354 354 354 353 352 351 351 351 351 351 351 351 351 351 352 353 353 353 352 352 352 353 356 358 357 357 357 356 356 355 355 355 356 357 357 357 358 358 358 358 357 356 356 356 355 354 354 352 349 347 347 346 344 343 343 343 341 339 338 338 338 338 337 337 337
330 332 334 334 335 335 337 338 339 340 342 343 344 344 346 348 350 352 354 354 355 355 354 353 353 352 351 351 351 351 351 351 351 351 352 353 353 353 353 352 353 352 352 355 357 357 356 356 357 356 355 355 355 357 357 357 357 358 358 357 357 356 356 356 356 356 355 354 352 349 348 347 345 344 344 343 342 340 340 338 339 339 338 337 336
330 331 332 332 334 335 336 337 338 340 341 343 344 345 346 348 349 352 353 354 355 355 354 354 353 352 352 352 352 352 352 352 352 352 352 352 352 353 353 353 353 352 352 353 355 357 357 356 356 356 356 356 355 355 356 357 357 357 357 357 357 356 355 355 355 355 355 355 354 352 349 348 347 346 345 344 343 342 341 339 339 339 338 337 337
329 330 331 332 333 335 336 336 338 339 340 343 345 346 347 349 350 352 354 354 355 355 354 354 353 352 352 353 354 354 353 353 353 352 351 351 352 352 353 353 353 353 353 353 354 355 356 356 355 355 356 356 355 354 355 356 356 356 357 356 356 356 355 354 354 354 355 355 354 353 352 350 349 347 342 342 342 341 343 340 340 340 339 338 337
328 329 330 332 334 335 336 337 338 339 340 342 344 346 347 348 349 351 354 356 356 355 355 354 353 353 354 354 354 354 354 353 352 352 351 351 351 352 352 352 353 353 353 353 353 354 355 356 355 354 354 356 356 356 348 337 342 356 356 356 356 356 355 354 353 353 353 354 354 354 354 348 341 339 338 336 336 336 337 342 343 341 340 339 338
328 329 330 331 333 335 336 337 338 339 340 342 343 345 347 348 349 350 352 356 357 356 356 355 354 355 355 354 354 354 354 353 353 352 352 351 351 351 351 351 352 353 353 353 353 353 354 355 355 355 354 354 356 356 338 332 334 337 352 355 355 355 355 354 353 352 351 352 353 354 353 350 343 339 341 334 334 334 334 336 339 340 340 342 339
328 329 330 331 332 335 336 337 338 340 341 342 343 345 346 347 348 349 351 354 358 358 357 356 357 356 356 355 355 354 354 353 353 352 352 352 351 351 350 351 351 352 353 354 353 353 353 354 355 355 355 354 354 340 334 331 332 332 337 355 355 355 355 354 354 353 352 352 352 353 353 353 352 349 348 344 337 332 332 333 334 336 336 336 338
329 329 331 331 332 335 337 338 340 340 341 342 344 345 346 347 349 350 352 353 356 358 358 358 358 358 357 356 355 354 354 353 353 353 353 352 351 350 350 350 350 351 352 353 352 353 352 353 354 354 354 355 355 339 331 329 330 330 330 341 356 355 354 354 354 354 353 352 352 352 352 353 354 343 346 348 347 343 331 329 331 333 334 333 333
330 331 331 332 334 335 337 339 340 341 342 343 345 346 347 350 351 352 352 353 353 356 358 358 359 358 358 357 356 355 354 353 354 353 353 352 351 350 350 351 351 350 350 351 352 352 352 352 352 353 354 355 355 340 329 327 327 328 329 334 354 355 354 354 355 355 355 354 353 352 351 351 353 353 350 349 349 347 345 341 337 337 339 339 332
335 336 339 341 340 339 339 339 340 342 342 344 346 348 349 350 352 352 353 353 353 354 356 358 358 359 359 358 357 355 354 354 353 353 352 352 351 351 350 350 350 349 349 349 351 351 351 352 352 352 353 354 356 337 328 325 324 324 327 329 351 355 355 354 355 355 355 355 355 354 353 352 352 353 353 349 349 348 347 345 343 341 340 341 342
343 341 340 342 344 344 344 343 347 350 349 348 349 351 351 351 353 353 353 353 353 353 353 356 358 358 358 358 357 356 355 354 353 352 352 351 352 351 350 350 350 350 350 350 351 352 352 352 352 352 351 352 355 334 327 324 323 323 325 338 348 353 354 354 354 355 356 356 356 356 355 354 353 353 345 334 339 350 348 347 345 344 343 343 343
342 345 345 346 347 347 347 345 343 343 342 346 349 351 353 353 352 353 353 353 353 352 352 353 356 357 358 359 358 357 355 354 354 353 351 351 351 352 352 352 350 349 348 348 349 351 352 353 353 353 352 352 353 338 324 322 321 321 324 343 348 351 353 354 354 355 355 356 356 356 356 355 355 354 343 332 330 336 349 348 346 345 345 344 344
344 347 349 350 351 353 355 353 352 353 355 355 348 343 347 350 351 352 352 352 352 352 353 353 354 356 358 358 359 358 357 356 354 353 352 352 352 353 352 353 350 349 348 348 349 349 351 353 353 353 354 352 352 342 321 319 319 319 327 345 348 350 351 352 354 355 355 355 355 349 356 356 355 355 338 330 329 334 347 349 348 346 345 344 345
342 345 348 350 351 352 352 351 350 350 352 356 359 357 346 343 345 346 349 350 350 350 351 352 353 355 356 358 359 359 358 357 355 355 355 353 353 352 353 353 352 351 349 349 349 349 349 351 352 354 347 351 354 343 318 319 318 318 327 346 350 350 350 351 352 353 354 355 354 351 345 346 350 348 334 329 326 331 347 349 349 348 346 345 346
343 344 346 349 350 348 348 349 349 349 352 354 358 359 361 358 357 348 342 343 346 348 350 351 353 354 355 356 358 359 358 357 356 356 356 356 355 354 353 353 352 352 350 350 349 349 349 350 351 352 353 353 354 354 331 317 317 317 320 345 351 350 350 351 352 352 353 353 354 354 347 329 328 330 328 325 323 322 344 350 350 349 347 347 349
343 344 348 344 346 346 346 348 349 351 353 355 357 358 357 358 354 349 350 346 341 343 346 350 352 354 354 355 357 358 358 358 358 357 357 357 356 355 354 354 353 353 352 350 349 349 350 350 351 352 353 353 355 355 339 314 315 315 317 326 351 352 352 352 352 351 352 353 353 353 355 336 324 323 323 322 320 318 325 348 351 350 350 349 346
345 349 346 342 344 345 347 349 349 350 351 354 356 356 357 356 353 354 357 361 360 351 344 347 351 354 354 355 356 358 359 359 359 358 357 356 357 358 356 355 355 354 353 352 351 350 350 351 352 353 354 354 355 347 351 316 315 313 315 316 343 352 352 354 353 353 353 354 354 355 354 342 327 322 320 319 318 318 318 336 348 333 332 332 343
340 341 345 344 342 343 346 347 348 348 348 349 353 353 355 354 351 354 357 360 360 358 346 346 350 354 355 355 356 357 358 360 359 358 357 356 358 358 358 357 356 355 354 353 352 352 351 351 351 353 355 355 356 352 336 330 314 313 312 313 321 339 335 352 354 353 353 355 356 356 354 340 326 320 317 316 317 317 317 327 323 324 326 327 332
340 341 343 345 342 343 344 345 345 346 347 348 348 349 353 352 349 355 357 360 359 359 349 345 347 352 355 356 357 359 359 359 359 359 358 357 358 358 358 358 357 356 355 354 354 353 352 351 351 351 353 354 356 356 337 326 324 312 312 312 313 319 328 346 354 355 356 356 357 357 348 329 320 314 312 313 315 315 326 319 316 319 322 326 339
337 339 341 342 343 342 343 343 344 345 346 347 347 346 349 347 349 355 357 358 359 360 352 348 347 349 354 356 358 359 359 360 360 359 358 358 358 359 358 358 358 357 356 355 354 354 353 352 351 350 350 352 357 357 357 333 320 314 312 311 312 314 318 321 344 353 354 343 313 306 310 316 320 317 315 313 313 313 312 312 314 315 320 330 336
336 338 340 340 343 343 342 342 343 344 345 346 345 345 344 344 349 352 354 357 359 359 354 351 348 349 353 356 357 359 360 361 361 361 360 360 360 360 359 359 358 358 357 356 354 353 353 352 351 351 350 353 355 356 341 333 328 320 316 311 311 312 315 316 319 327 318 315 315 314 314 319 325 326 331 334 336 336 321 317 316 318 326 330 333
334 336 339 339 340 341 341 342 341 342 343 345 344 345 345 346 347 348 350 353 357 360 357 354 350 353 356 356 356 358 359 361 362 362 362 362 362 362 360 358 359 358 357 356 355 353 352 352 352 352 351 352 349 332 332 333 332 329 328 323 317 319 316 317 325 331 327 333 334 333 334 325 322 322 324 322 325 329 330 330 330 330 329 331 333
334 336 339 338 339 338 339 339 339 341 341 342 343 343 344 343 344 346 348 349 355 359 359 352 353 357 358 357 357 367 363 360 359 360 361 360 361 363 360 359 359 359 357 356 356 355 353 354 354 353 353 345 327 324 322 324 328 332 331 329 328 329 326 326 329 332 333 335 336 329 328 334 337 338 339 340 339 338 335 333 335 335 334 334 332
333 335 338 337 338 339 338 337 338 339 340 340 340 341 342 342 342 344 346 346 350 358 359 352 354 357 358 359 359 362 357 345 331 319 312 310 312 320 344 347 333 333 357 361 358 358 357 357 356 354 352 332 327 323 321 310 315 311 329 334 333 332 331 326 313 308 328 331 331 332 332 333 333 334 335 337 338 339 340 341 340 340 338 338 338
334 336 334 335 339 339 337 337 337 337 338 338 338 339 341 341 342 343 344 344 348 352 350 349 350 354 358 359 359 356 348 340 333 327 321 318 312 303 306 322 325 318 309 319 337 353 349 336 326 320 328 339 329 322 304 299 298 297 298 300 300 300 305 310 306 306 322 324 325 325 326 327 328 329 330 330 331 332 332 332 333 328 335 336 337
334 335 333 334 336 340 338 338 338 338 338 338 338 338 339 340 340 342 343 343 346 347 347 346 347 351 353 358 355 350 345 340 334 329 326 325 323 317 302 301 308 309 305 300 301 305 311 319 326 318 313 310 309 302 298 298 297 297 297 296 295 295 296 297 302 319 321 320 320 320 320 321 322 322 322 323 324 324 325 325 326 327 328 329 328
Wind_Speed
15 15 17 18 18 16 16 15 15 15 15 16 17 16 15 14 13 14 13 13 11 9 8 9 9 8 7 8 8 7 6 7 6 5 7 7 7 7 7 7 6 6 5 5 5 4 5 5 5 5 5 5 5 5 5 5 4 4 4 2 3 2 2 1 0 2 2 2 3 3 2 3 7 5 5 5 5 5 5 5 4 4 4 4 4
14 13 14 16 16 17 15 15 15 16 16 17 18 18 16 15 14 13 12 13 13 12 10 10 10 10 10 9 7 7 7 7 7 6 7 7 7 7 7 7 7 7 6 5 5 5 5 5 5 6 5 5 4 3 3 3 3 3 3 2 1 3 2 2 1 2 1 2 2 1 3 1 4 5 6 4 3 4 5 5 4 5 5 5 3
15 16 15 16 19 18 15 15 16 19 18 18 18 17 16 15 14 13 13 13 13 12 10 10 9 8 9 7 9 6 6 6 6 5 5 7 7 7 7 7 8 7 7 6 6 5 5 6 6 5 5 5 4 4 4 3 3 4 4 5 2 0 1 1 2 2 1 2 2 3 0 0 1 2 1 6 6 4 4 5 5 5 5 4 4
18 19 18 17 18 18 16 15 17 16 16 15 16 18 15 14 14 14 13 13 12 12 11 9 9 7 6 7 7 8 7 5 5 3 4 6 8 7 6 8 8 8 8 7 6 6 6 6 5 5 6 5 6 6 5 4 4 3 4 3 3 1 1 2 2 3 3 4 1 1 2 3 0 3 1 2 5 7 6 6 6 5 5 3 3
19 19 17 17 18 19 19 17 16 17 17 17 17 17 13 17 16 16 14 14 13 13 12 9 7 6 5 5 4 3 2 4 5 6 4 6 6 7 8 8 8 8 8 8 7 7 6 5 6 6 5 5 5 6 5 5 5 5 5 4 4 4 3 2 2 3 3 4 5 2 2 1 3 4 1 3 2 6 6 7 6 6 6 5 5
21 22 22 20 20 18 17 17 18 17 18 18 18 18 16 15 15 15 13 13 13 14 13 11 10 11 9 9 9 8 8 8 10 11 7 7 8 7 8 9 8 8 8 8 8 6 6 6 5 6 5 5 6 5 5 4 4 4 5 5 5 4 4 3 3 2 4 3 4 4 5 3 3 2 3 3 1 1 6 6 7 7 6 6 5
18 19 19 17 18 18 19 19 19 19 18 17 17 17 17 16 15 16 14 13 13 13 14 11 11 10 13 13 12 12 11 10 8 7 7 6 6 8 8 8 9 9 8 8 8 7 6 6 6 6 6 6 5 5 5 6 5 5 5 5 6 4 3 3 4 4 1 2 2 3 1 1 5 5 3 2 1 4 1 2 4 5 6 6 6
20 20 21 19 20 21 22 21 19 20 18 17 17 16 17 17 16 16 13 13 13 13 15 14 13 12 12 11 10 10 11 10 9 7 5 5 7 8 7 8 9 9 9 8 8 8 7 7 6 6 6 6 5 6 6 5 5 4 5 6 5 4 5 5 5 3 5 3 2 1 2 1 2 1 4 6 5 4 1 1 1 2 4 6 7
22 20 22 21 20 21 20 20 20 19 17 18 17 16 17 17 17 16 15 14 14 16 15 15 14 13 13 12 10 9 10 9 7 7 7 6 7 6 7 8 8 8 8 9 8 8 7 7 6 6 6 6 5 6 5 5 6 6 5 5 6 5 5 4 4 5 4 6 3 1 0 1 0 0 3 3 3 3 1 3 3 1 2 3 5
20 23 24 23 22 21 21 20 18 18 17 17 17 16 15 15 16 17 16 14 14 16 16 16 15 13 12 12 13 10 8 7 7 8 8 6 7 8 8 7 8 8 7 7 8 8 8 7 6 7 6 6 5 6 5 5 5 5 6 6 5 5 4 5 5 4 6 4 4 5 3 1 1 1 1 3 3 3 7 6 5 6 6 6 5
19 20 22 23 21 20 18 19 19 17 16 17 17 16 15 16 17 18 18 15 15 16 16 17 15 14 13 14 14 13 11 10 9 9 8 8 8 8 8 9 7 8 7 6 8 8 7 7 7 7 6 5 6 5 6 6 6 5 6 5 6 6 5 5 3 3 4 4 3 5 6 5 5 3 3 1 2 2 2 4 3 5 6 5 7
21 19 20 20 16 16 17 19 18 18 16 17 16 16 16 16 16 18 16 16 15 16 16 16 15 14 13 14 14 13 12 11 13 12 11 11 11 9 8 7 7 7 6 6 7 8 7 7 7 6 6 6 7 6 6 6 5 5 5 6 6 6 5 5 4 4 4 4 4 5 5 4 4 3 5 5 5 3 7 6 6 3 1 3 2
19 19 18 18 18 18 19 19 18 17 18 20 19 18 16 17 18 19 17 17 16 16 17 16 15 15 14 14 14 12 12 12 12 12 11 11 10 8 8 9 7 7 8 8 8 9 8 8 8 8 8 7 7 6 6 6 5 5 6 6 6 6 6 6 6 5 6 5 6 5 5 4 5 3 4 5 3 5 6 4 4 2 5 3 2
19 19 19 19 19 19 20 20 19 18 19 20 20 19 17 16 18 19 19 18 16 17 18 17 17 16 15 14 14 12 12 12 11 12 12 10 9 10 10 9 9 10 10 10 9 9 8 9 9 8 8 7 7 7 7 6 5 6 6 6 7 6 5 5 6 5 5 5 4 5 5 5 5 4 4 4 4 4 3 5 4 0 1 5 1
18 17 19 20 21 21 19 20 19 19 20 20 19 19 18 18 19 20 19 18 17 18 17 18 16 16 14 14 13 12 12 11 10 10 10 11 9 10 9 8 9 9 9 9 7 8 9 8 8 8 8 8 7 6 6 6 6 6 5 6 6 6 6 6 5 5 6 5 4 5 6 5 6 5 5 5 5 6 6 5 5 4 0 0 1
19 19 19 20 20 20 18 18 19 19 21 20 20 19 19 19 20 21 21 20 18 18 17 18 17 15 15 14 15 14 11 10 9 7 8 10 10 10 9 9 9 8 8 7 8 9 8 9 8 9 8 8 7 7 6 6 6 7 6 6 7 5 6 7 6 6 6 6 6 5 4 6 5 5 4 5 6 6 5 5 5 5 6 3 1
19 19 19 20 19 19 19 20 19 19 19 20 20 20 21 20 20 21 20 18 19 19 19 17 17 15 15 15 14 13 13 12 12 12 11 9 9 9 9 9 8 7 7 7 8 8 8 9 9 9 8 8 8 8 8 7 6 7 7 6 7 6 7 8 6 7 6 5 5 6 6 6 6 4 4 4 5 4 5 6 6 7 7 6 4
22 22 21 22 22 23 20 19 20 21 21 21 22 21 20 20 21 21 20 20 19 18 18 16 16 16 15 15 14 14 14 14 13 12 11 9 9 8 8 7 9 8 8 8 8 9 8 9 9 8 8 8 9 8 8 8 7 7 7 7 8 7 7 6 7 7 7 5 5 5 5 6 5 4 6 4 4 5 5 5 6 6 7 8 6
20 19 17 17 18 20 21 21 21 21 21 21 21 20 18 17 18 20 21 21 20 17 16 14 14 12 12 14 15 14 13 13 12 11 10 11 11 10 10 11 8 7 8 8 9 9 9 9 8 8 8 9 9 9 9 8 8 8 7 8 7 7 8 8 7 7 7 6 6 7 6 6 5 6 5 5 4 5 6 6 6 6 7 7 8
18 18 18 19 21 22 22 21 21 21 20 18 18 17 19 19 18 18 19 18 17 17 16 15 15 14 13 12 13 13 13 12 12 11 11 12 12 12 12 10 11 9 9 9 10 10 10 10 9 9 9 9 9 9 9 9 9 9 8 8 8 8 9 9 8 7 6 7 8 8 8 8 6 5 6 5 6 4 5 6 6 7 7 7 7
19 18 18 19 20 20 20 19 20 19 18 17 17 19 19 17 18 19 19 19 18 18 17 16 14 15 15 15 15 14 14 12 11 11 11 12 11 11 12 12 9 10 9 9 10 11 11 11 10 10 10 10 10 10 9 9 9 10 9 9 8 9 10 9 8 9 8 8 9 9 9 8 6 6 7 6 6 5 4 6 6 7 7 7 7
20 19 19 19 19 19 19 17 15 16 16 18 18 17 17 18 18 18 18 17 18 18 16 15 14 14 16 16 16 14 13 12 12 12 12 11 11 11 11 9 11 11 10 11 11 10 10 11 11 11 11 11 11 11 10 9 10 10 10 8 9 10 10 10 8 9 10 8 9 10 10 9 7 8 7 7 7 6 5 6 6 7 7 7 7
21 20 19 19 19 19 19 19 19 19 18 18 17 17 17 19 18 17 18 19 19 19 17 16 16 15 16 15 14 14 13 14 14 13 13 12 11 11 9 11 11 11 10 11 12 11 11 11 11 11 11 11 12 12 11 11 11 11 11 10 10 11 11 11 11 11 11 10 9 10 11 9 6 8 8 8 7 7 6 7 8 6 7 7 7
20 20 18 18 17 17 16 16 16 15 15 18 17 17 17 17 17 17 19 19 18 17 16 16 15 16 16 16 15 15 15 15 15 14 14 14 12 11 10 11 11 10 11 11 11 12 11 12 12 12 12 12 12 12 12 12 12 12 12 12 11 11 11 12 13 12 11 11 12 11 11 10 9 9 9 8 7 6 7 7 7 7 7 7 7
19 19 18 17 15 16 17 17 17 16 17 17 18 17 17 16 16 17 17 18 17 16 16 16 17 18 17 16 17 15 15 16 16 14 15 15 14 12 11 12 11 11 12 11 11 11 12 12 13 14 13 13 13 13 13 13 12 12 13 12 12 12 12 13 13 13 12 13 12 13 13 11 10 10 10 9 8 8 8 7 8 7 7 7 5
19 18 16 16 17 16 16 16 15 16 17 17 17 17 16 16 17 16 16 16 16 15 16 16 16 17 17 18 17 17 17 17 16 15 16 15 14 14 13 12 13 13 12 12 12 12 12 14 14 14 14 14 13 13 14 14 14 13 12 13 12 12 13 13 12 12 12 12 13 13 12 11 11 12 12 10 9 10 8 8 8 8 8 6 7
19 18 17 17 14 17 18 18 17 18 17 16 16 17 16 16 16 17 16 16 16 16 16 16 16 17 16 17 17 17 16 16 16 15 14 14 14 14 14 14 13 14 14 13 13 14 13 13 14 14 14 14 13 13 13 13 13 13 13 13 13 13 13 12 12 13 12 12 13 12 11 11 12 12 12 12 11 10 9 10 10 9 7 7 8
16 17 18 18 17 18 17 17 16 16 16 15 15 16 16 16 17 17 16 16 15 17 17 17 16 16 16 17 17 16 16 15 14 14 14 15 14 14 14 14 13 14 14 15 14 15 14 13 14 13 14 12 12 12 13 13 13 13 13 13 13 13 13 12 12 12 12 12 12 12 11 11 12 13 13 12 11 11 9 9 9 8 8 8 9
19 18 18 19 18 17 17 16 16 16 16 16 15 15 14 14 14 15 16 17 16 15 16 16 15 16 17 16 14 14 13 13 14 14 14 14 14 14 14 13 13 14 13 15 14 14 14 14 14 13 13 12 12 13 12 12 13 14 13 14 14 14 14 13 13 13 12 12 11 11 11 12 13 15 17 15 14 13 10 11 10 9 10 10 10
19 19 21 20 19 18 17 16 15 16 16 15 14 15 15 16 16 15 16 16 15 16 16 16 17 18 16 15 14 13 13 13 13 14 14 14 14 14 14 14 14 14 14 14 14 14 14 15 15 14 13 12 12 11 14 20 18 14 14 12 12 13 13 13 13 12 12 12 12 11 12 17 17 17 17 17 17 16 17 14 12 11 11 11 11
19 17 17 15 16 16 16 16 17 17 17 17 16 15 15 16 15 15 15 15 15 15 16 16 17 15 14 14 13 13 13 14 14 14 14 14 15 13 13 14 14 14 15 14 14 15 15 14 15 14 14 13 12 12 19 19 20 21 15 12 12 12 12 12 12 12 12 12 12 12 11 13 15 15 16 19 19 19 19 20 20 18 15 14 12
18 16 14 14 14 13 16 18 18 18 17 16 15 14 14 15 14 14 13 12 13 14 15 14 15 14 14 14 14 14 14 14 13 14 14 14 13 14 14 14 14 15 14 13 14 15 15 14 13 14 14 14 13 16 19 19 20 21 18 14 12 11 11 12 12 13 12 11 12 12 11 10 10 13 14 14 17 20 21 21 21 20 19 19 18
16 15 14 15 15 16 17 16 15 15 15 16 16 15 15 15 14 13 12 13 14 14 15 15 15 15 15 14 14 14 15 14 14 14 13 13 13 14 14 14 16 15 13 14 15 15 15 14 14 14 15 15 14 17 18 20 20 21 21 18 12 12 12 12 12 12 12 12 11 11 11 10 11 16 15 13 12 14 18 21 21 21 20 20 20
9 11 13 10 8 9 11 14 15 15 16 14 13 15 15 14 14 13 14 14 14 14 15 15 15 15 15 14 14 14 15 15 14 14 13 14 14 15 15 14 13 13 14 14 14 15 15 15 15 14 14 14 15 16 19 20 20 21 21 19 14 14 13 12 13 12 12 12 13 12 11 11 11 11 11 13 13 13 13 13 14 13 14 17 20
8 7 4 4 5 6 6 6 7 9 9 9 10 11 10 11 12 12 13 13 14 14 14 15 15 15 14 14 14 14 14 14 14 14 14 15 15 15 15 14 13 14 15 15 15 15 15 15 15 14 14 14 13 18 19 21 21 21 22 19 14 13 12 12 12 12 13 13 13 12 12 13 11 11 10 12 13 13 13 12 13 14 16 16 16
9 10 7 7 6 6 6 5 4 5 6 8 9 10 11 12 12 12 12 13 13 14 14 13 15 15 15 14 14 14 14 14 14 14 15 15 15 16 16 14 13 12 12 12 12 12 14 14 14 14 14 14 14 18 19 20 22 21 20 13 13 14 13 13 12 12 12 12 12 12 12 12 12 12 14 17 16 13 12 14 15 15 15 15 16
12 12 10 8 8 9 7 6 7 5 3 3 6 8 10 11 12 12 12 13 13 14 14 13 14 15 15 15 14 15 14 15 14 15 15 15 15 15 14 12 13 13 13 13 14 13 13 13 14 14 15 15 13 15 18 20 20 20 14 11 12 12 13 14 14 12 12 12 12 12 12 12 12 12 14 17 18 17 14 15 15 16 15 15 16
13 12 12 12 12 12 10 9 9 10 7 5 3 5 7 9 12 12 12 13 13 14 13 12 13 13 14 15 15 15 15 15 15 16 16 15 14 13 14 13 14 14 14 14 13 12 12 12 13 14 14 13 13 11 16 17 19 19 17 14 12 12 14 14 13 13 11 11 13 17 16 13 13 13 16 18 18 17 15 15 14 15 16 17 17
14 13 13 12 11 10 10 10 11 11 7 6 6 7 5 2 4 7 11 13 13 12 12 12 11 12 13 15 15 16 16 16 16 16 15 15 15 15 13 12 13 13 14 13 12 12 12 11 12 13 14 14 11 10 15 18 19 20 18 12 12 12 13 13 12 13 11 11 11 12 17 17 16 16 18 18 19 17 15 15 15 15 18 19 17
13 13 10 10 11 13 14 12 11 7 5 6 5 6 5 4 3 0 4 7 9 10 10 10 10 11 12 13 14 16 16 17 17 15 14 14 13 12 12 13 13 12 12 11 12 12 13 12 11 11 11 12 11 9 11 19 20 22 23 15 11 12 13 14 13 12 11 11 11 11 13 18 21 20 19 19 19 21 17 15 14 15 17 21 11
14 12 10 11 10 10 11 9 7 7 7 7 6 6 6 4 3 4 2 3 4 5 7 8 10 11 12 13 12 14 16 16 15 15 14 13 12 12 12 12 12 11 11 11 12 12 12 12 10 10 10 10 10 10 11 19 20 23 24 21 12 14 13 12 12 13 12 11 10 10 10 13 19 20 20 21 20 21 21 17 16 17 17 18 14
13 14 12 10 10 10 11 12 10 10 9 8 7 8 6 5 6 6 6 5 4 4 6 7 7 9 11 13 13 13 14 13 14 13 12 12 11 11 11 12 11 11 12 13 12 11 11 10 9 8 9 10 10 15 9 17 21 22 23 25 15 13 13 12 12 12 11 10 10 10 10 13 18 19 21 22 22 19 20 15 18 20 21 20 16
13 13 13 12 11 11 11 9 8 9 9 8 9 9 7 6 7 7 7 7 6 5 4 6 8 8 9 11 11 14 13 11 11 12 13 13 11 11 11 11 11 11 12 12 12 10 10 9 8 7 6 7 7 9 15 13 18 21 22 22 23 16 16 13 12 12 11 11 10 10 11 15 17 18 19 19 19 21 16 15 21 22 21 21 18
10 9 8 9 8 7 7 7 7 7 7 7 8 8 7 7 7 8 8 7 6 6 3 5 6 8 9 9 10 12 12 12 13 12 12 12 11 10 10 10 11 11 10 11 10 9 9 9 9 7 6 5 5 7 11 16 15 20 20 23 23 22 16 12 12 11 9 10 11 9 5 8 11 14 15 15 16 15 12 17 20 22 22 20 15
8 9 8 7 7 6 6 6 7 7 7 7 7 8 8 9 8 7 8 8 8 7 3 4 5 5 7 8 8 9 10 10 10 12 11 11 10 10 10 9 9 10 10 10 9 8 9 9 8 7 6 6 6 6 7 12 16 18 21 21 22 22 22 17 11 9 5 1 3 4 8 7 5 7 10 10 9 12 15 16 16 16 14 10 11
8 7 8 7 7 7 8 8 8 7 7 6 7 7 8 7 7 8 8 8 7 6 3 4 4 5 5 5 6 7 8 9 9 9 11 10 12 11 11 9 9 9 9 9 8 7 8 7 7 6 6 6 6 5 1 4 4 6 6 9 10 9 10 9 9 8 8 10 12 11 8 7 4 3 3 3 5 7 11 14 16 14 9 10 10
11 9 7 9 8 8 8 7 7 6 6 6 6 5 4 5 7 8 8 9 8 6 4 1 4 4 5 6 7 7 6 6 6 6 7 7 8 9 9 9 9 9 8 7 6 7 7 6 7 6 5 6 4 4 4 4 3 4 4 5 6 5 5 3 5 7 8 9 10 9 8 10 9 10 10 9 9 8 7 7 5 5 6 7 9
7 7 7 7 8 7 6 6 6 6 6 5 5 5 5 6 7 8 8 9 8 6 6 3 4 5 6 7 8 10 9 6 5 4 4 3 4 6 8 8 9 8 8 7 7 7 8 8 7 6 6 5 4 4 3 4 4 4 4 4 4 4 5 5 5 4 3 3 2 3 4 4 4 5 5 5 5 4 5 6 6 6 6 7 9
7 6 6 5 5 6 5 5 5 4 5 5 5 5 6 6 6 7 7 8 8 8 6 2 2 4 5 5 7 7 8 9 9 11 10 7 4 4 1 1 4 1 4 8 8 7 7 6 6 6 7 5 4 4 3 2 2 3 6 6 5 4 4 3 3 2 2 2 2 2 2 3 3 3 5 5 5 6 6 6 6 6 5 6 7
5 6 6 5 5 4 4 4 4 4 3 4 5 5 6 6 5 6 6 7 7 7 4 4 1 2 4 6 6 7 8 9 9 9 9 9 13 14 10 4 2 7 8 4 4 5 5 7 7 4 1 7 7 5 7 8 8 11 12 11 8 7 5 5 3 3 4 4 3 3 4 4 4 4 5 5 6 6 7 7 7 7 7 7 8
5 8 8 5 5 4 5 5 4 3 4 4 4 5 6 6 5 6 6 6 6 5 4 2 1 2 4 6 7 8 7 8 8 9 9 10 9 13 18 17 10 11 13 15 14 15 13 7 11 8 9 16 16 14 12 9 11 11 12 11 10 9 8 6 4 5 6 5 5 6 5 5 5 5 4 5 5 6 6 7 8 8 8 9 9
Wind_Direction
191 185 179 180 180 176 175 175 177 175 175 174 177 179 180 180 178 179 177 176 177 177 179 174 172 173 173 183 186 187 184 190 189 177 181 188 181 176 176 176 174 174 182 178 165 172 172 173 166 172 165 164 157 171 175 182 178 170 169 159 162 175 259 308 98 130 76 18 16 17 31 113 177 170 180 187 192 185 183 176 182 167 171 184 185
186 185 183 179 180 179 175 176 176 176 180 177 179 181 181 180 182 178 174 178 181 183 182 182 181 181 176 184 179 184 186 188 200 183 187 184 185 178 177 176 175 177 179 186 174 173 170 176 178 177 170 168 165 161 168 181 145 148 145 130 205 162 212 224 198 88 30 149 125 330 344 21 141 174 183 208 204 204 178 171 179 177 184 191 172
188 190 186 182 181 179 177 177 179 181 180 180 179 178 178 181 181 177 179 179 182 181 181 188 186 181 177 177 177 181 199 192 196 179 178 177 185 184 178 176 175 181 181 183 183 178 177 176 185 175 176 164 148 159 170 173 159 168 168 166 183 313 221 228 171 132 168 130 126 84 323 99 318 41 189 189 191 211 175 175 179 181 194 188 179
190 190 190 186 182 182 180 178 180 178 178 180 180 180 179 181 180 179 181 179 180 183 184 187 184 177 169 166 172 175 186 189 194 192 162 174 181 184 185 177 180 182 183 185 189 181 175 182 180 177 181 174 164 168 183 178 167 175 171 177 142 152 262 274 177 182 132 134 110 168 209 116 27 277 235 272 176 176 181 184 181 181 187 184 167
188 190 191 189 186 185 185 180 175 179 179 180 181 182 183 182 180 180 179 180 180 181 179 172 166 149 140 126 133 127 132 179 184 220 185 182 177 180 189 183 183 184 186 187 185 189 177 181 179 185 178 180 166 175 181 192 185 188 181 170 180 168 206 246 256 179 191 173 131 103 40 43 212 238 133 271 99 145 183 187 185 174 180 187 193
186 189 191 190 189 183 184 180 179 182 182 183 182 183 180 180 177 178 178 179 179 179 174 169 174 168 159 156 165 178 187 190 199 202 192 186 190 182 180 184 184 187 188 187 187 188 185 181 181 178 184 179 180 183 181 181 193 190 198 183 194 194 171 180 240 219 194 193 173 172 162 172 200 230 116 232 11 331 174 182 183 183 179 187 200
192 191 191 189 189 185 184 184 181 183 185 182 182 181 180 177 177 177 177 180 178 177 174 174 174 178 180 180 179 181 185 202 204 202 191 185 172 182 184 185 186 187 190 188 187 187 190 183 183 184 187 186 182 173 181 192 195 197 193 184 200 191 149 187 204 225 61 275 221 234 208 165 144 123 198 96 90 349 45 163 189 182 184 184 195
185 189 191 192 188 186 185 185 183 185 180 179 182 181 178 177 176 178 178 178 180 176 177 179 180 182 185 186 187 189 192 196 198 201 183 167 180 185 181 188 189 191 187 189 186 185 187 192 186 185 188 189 180 185 193 195 190 200 188 191 194 186 181 187 207 190 168 233 234 235 250 98 126 135 151 159 161 138 180 355 31 152 188 201 199
184 185 189 191 190 189 185 185 185 180 177 179 182 182 181 178 176 176 177 178 179 179 179 183 184 185 185 186 189 195 193 194 193 194 192 175 181 185 186 189 190 195 192 187 187 185 187 193 189 187 190 190 186 191 198 187 189 189 194 191 191 197 187 191 164 197 189 193 179 266 72 83 57 50 103 101 137 123 148 184 178 98 185 239 224
188 186 187 190 190 189 185 182 179 181 179 178 179 179 180 178 176 176 179 180 180 182 182 184 184 184 187 190 192 188 188 186 184 193 200 182 184 189 188 188 191 194 196 191 186 188 190 190 191 192 195 191 188 193 193 198 198 193 194 195 196 191 199 184 187 184 196 209 192 170 163 90 62 51 43 79 56 104 161 198 185 171 186 226 208
189 190 189 190 188 187 181 180 182 178 177 176 177 179 179 179 180 180 182 180 180 184 184 185 184 185 191 192 192 190 185 180 183 195 195 196 190 191 190 194 190 194 189 193 190 188 190 190 193 198 196 196 194 191 196 201 202 197 200 195 194 187 183 195 196 182 190 197 183 175 186 165 177 166 207 184 131 127 95 192 197 201 191 187 221
187 187 190 188 181 182 181 185 181 177 174 176 177 176 176 180 182 184 183 181 182 185 187 187 186 189 191 191 194 193 184 184 188 191 192 196 197 189 191 183 194 193 193 189 194 192 189 193 194 192 195 195 200 196 200 201 198 192 194 192 196 195 176 180 176 195 204 205 197 197 197 180 174 164 187 161 148 177 160 184 196 198 294 241 266
183 185 185 184 183 181 183 184 179 176 177 179 179 178 177 179 181 182 186 184 184 184 188 189 190 191 191 192 195 193 191 189 190 191 192 194 194 187 177 192 187 189 199 197 197 191 189 191 193 195 198 197 195 193 203 199 192 186 191 193 189 191 188 180 180 195 192 192 209 207 194 181 203 204 147 161 160 135 143 145 235 171 193 231 249
185 185 184 185 185 184 183 181 181 179 179 180 179 179 178 180 182 183 187 185 183 185 188 190 194 193 192 193 194 192 194 192 192 192 192 193 188 191 188 189 189 197 194 202 196 190 192 196 195 198 196 193 191 193 197 200 188 189 187 189 192 198 188 188 192 193 190 205 193 186 208 200 217 185 183 145 145 131 142 164 162 36 173 208 287
186 185 186 187 187 184 182 183 183 181 179 180 180 182 180 182 182 185 185 187 184 186 187 191 194 195 194 194 194 194 195 195 196 193 190 190 191 192 193 189 194 198 198 200 188 190 195 193 196 196 194 194 192 191 196 196 193 192 190 193 192 191 195 193 201 189 196 202 203 202 199 205 213 205 173 194 158 175 167 173 143 127 72 69 254
187 188 189 189 186 183 183 184 185 184 180 180 181 181 183 185 185 187 186 185 186 186 189 192 194 194 195 194 196 196 197 197 197 193 194 193 190 190 193 193 197 195 199 185 193 192 192 194 195 199 194 192 193 193 190 192 192 192 194 191 198 192 193 200 206 194 203 201 202 212 202 218 212 213 198 194 190 182 180 160 148 145 156 228 317
187 188 188 188 186 186 186 185 185 184 183 183 183 183 185 185 186 189 189 186 188 189 190 192 192 192 196 197 196 197 197 196 197 196 194 193 192 194 191 195 191 190 191 191 192 194 193 191 194 198 194 193 193 194 193 193 187 191 192 194 199 194 192 201 204 200 209 196 200 204 206 219 222 213 222 206 209 206 197 182 176 171 167 164 198
190 189 188 186 185 185 187 187 186 185 185 185 185 185 185 184 185 186 187 189 191 190 192 192 191 193 195 196 197 197 198 200 199 197 195 190 196 197 193 186 193 189 188 190 189 193 193 193 194 196 196 193 197 196 196 197 190 193 195 198 200 188 195 200 203 203 210 201 199 203 208 220 223 205 220 210 192 202 207 201 193 187 169 183 184
189 187 186 187 187 188 188 187 187 187 187 187 186 183 183 185 186 186 188 191 190 191 192 191 190 193 195 197 197 198 201 202 201 197 192 195 197 196 197 199 191 183 184 185 188 193 193 195 195 198 195 198 199 199 198 198 195 197 193 198 198 191 194 200 203 198 209 199 207 208 210 222 215 210 221 229 212 192 205 204 214 184 191 189 181
187 187 186 186 189 189 189 187 185 187 188 186 182 182 184 185 184 188 190 189 188 190 189 191 193 193 194 195 199 202 202 203 201 195 195 198 198 196 199 197 197 187 188 185 189 192 194 194 196 197 198 199 200 203 198 200 198 202 195 195 197 194 198 202 203 202 201 202 206 213 213 217 218 204 217 224 228 210 202 203 203 198 200 191 172
186 187 186 187 188 189 190 189 188 186 184 180 180 184 185 183 186 187 187 188 190 191 190 194 190 194 193 194 197 198 201 201 203 204 205 203 199 198 199 200 190 194 187 187 190 194 195 197 196 198 199 199 201 203 202 200 200 204 201 199 193 195 201 207 200 204 207 200 206 213 219 219 212 212 215 216 223 224 206 212 209 197 201 190 176
185 185 185 186 187 187 188 189 186 181 181 182 183 185 183 185 187 186 187 188 189 190 192 192 193 195 196 197 197 198 199 197 200 204 209 209 206 201 199 192 194 198 190 195 196 195 196 196 198 201 202 201 202 204 203 200 204 206 206 200 198 196 203 206 200 206 207 207 205 211 220 222 210 218 217 215 212 213 206 211 216 202 202 196 196
185 184 184 185 184 184 185 186 186 185 183 182 183 185 185 187 185 186 186 190 190 191 192 191 193 193 197 198 196 197 195 197 200 203 207 209 210 209 198 196 198 197 196 198 200 200 198 196 201 202 203 204 204 204 203 202 205 207 207 206 203 200 202 205 204 209 207 206 209 212 217 216 211 217 223 224 210 212 205 208 216 210 209 205 198
182 183 183 182 182 181 181 185 185 182 180 184 187 187 187 187 186 186 190 190 190 191 191 191 193 196 196 195 197 198 196 198 201 203 206 207 207 208 203 204 201 197 198 202 201 201 201 202 205 205 205 207 206 205 204 205 206 206 208 209 207 206 208 208 208 209 208 205 209 212 217 210 208 215 223 224 221 213 210 212 216 217 215 215 205
183 182 182 179 175 178 184 186 185 182 184 186 188 189 188 187 186 187 191 190 190 189 190 192 193 195 196 197 199 197 198 199 202 202 206 205 206 206 204 206 203 202 202 200 202 199 202 205 208 208 207 207 208 204 205 206 208 208 208 209 210 209 211 212 213 212 207 207 209 211 214 208 205 213 222 224 219 217 216 211 215 215 215 218 210
180 181 174 174 179 183 182 183 184 184 185 187 189 189 189 187 188 187 188 188 190 189 192 192 195 196 198 199 199 198 199 199 201 202 204 205 205 206 205 206 205 206 203 201 201 201 203 206 210 210 209 209 207 205 205 207 206 207 209 211 211 212 214 214 215 216 214 211 212 214 214 206 205 210 218 219 218 219 216 216 218 218 216 210 215
176 175 177 178 178 180 183 183 183 184 185 187 188 189 190 188 187 188 189 188 188 189 191 193 194 197 199 201 200 200 199 199 200 202 203 204 206 206 205 207 205 207 204 204 204 205 206 206 209 210 211 209 207 205 207 207 208 207 208 210 213 214 216 217 219 218 218 216 216 217 214 208 209 213 216 216 216 218 216 220 218 220 215 207 217
176 177 174 176 181 183 183 182 180 182 183 185 188 189 190 188 188 189 187 187 188 190 191 192 193 197 200 203 203 201 199 199 200 201 204 205 206 206 207 208 205 207 208 208 207 206 208 209 210 210 212 209 207 207 208 208 208 208 208 211 212 213 216 219 221 221 220 220 219 219 219 214 213 214 214 217 211 215 215 222 220 216 213 210 220
177 178 177 180 181 181 181 179 181 180 181 182 184 188 190 191 189 188 188 190 186 188 191 192 192 197 202 202 202 201 200 198 198 201 204 206 206 207 207 207 206 208 210 211 210 208 209 212 214 212 211 210 209 209 208 207 207 209 209 211 212 213 214 217 221 223 222 221 220 219 221 220 218 219 217 217 213 209 206 216 220 210 213 213 221
179 181 183 184 180 177 177 176 179 182 182 181 183 187 189 190 191 189 190 187 183 188 189 191 196 200 199 198 198 198 198 197 198 202 204 205 207 207 208 209 208 209 211 211 211 211 211 212 213 213 212 211 212 212 210 207 206 207 209 212 213 215 215 216 219 223 226 225 223 221 222 222 221 220 220 220 221 217 215 215 215 207 211 212 217
185 186 184 177 176 177 172 175 181 183 183 184 187 189 191 192 193 191 190 186 185 188 191 193 199 199 197 195 194 197 196 197 200 202 203 204 206 206 208 210 211 210 211 210 210 212 213 213 212 212 212 213 214 215 209 205 207 208 206 210 212 216 216 218 218 220 223 224 226 224 226 223 221 222 222 220 219 220 219 220 221 214 209 206 210
182 181 174 173 174 169 176 182 184 184 184 184 187 190 191 197 195 197 195 184 185 189 192 194 198 198 196 194 195 195 196 200 199 203 204 205 205 206 209 209 210 212 212 211 212 213 214 213 213 214 215 215 217 215 208 206 207 208 207 209 212 216 216 218 218 220 222 223 225 226 225 224 220 219 220 222 223 223 222 223 224 223 219 216 214
173 169 172 177 176 179 181 182 180 182 184 188 185 185 193 195 194 195 192 193 189 188 190 195 197 198 196 195 195 194 197 198 200 202 202 201 203 207 210 210 212 212 211 212 215 212 215 214 214 214 216 216 219 213 207 205 205 205 207 208 215 215 217 219 219 220 222 223 224 225 227 224 227 220 219 222 222 227 230 230 229 229 229 222 223
151 163 171 168 166 169 178 179 180 184 186 184 184 189 192 190 191 190 193 195 194 191 190 193 196 197 196 194 194 195 196 199 198 199 199 200 202 208 209 210 213 212 214 216 216 216 216 215 216 216 217 218 219 213 204 204 204 204 205 204 219 217 218 222 221 221 222 223 223 223 224 228 226 219 218 220 223 226 226 229 234 235 235 234 232
98 90 98 119 140 142 144 158 175 179 179 179 189 195 190 191 191 193 194 194 196 196 193 192 195 196 195 194 193 194 196 197 198 197 198 200 203 207 207 209 209 211 213 215 215 215 216 216 217 217 219 221 221 212 202 203 204 203 205 201 217 221 224 225 224 222 223 224 225 224 227 231 229 224 220 216 220 224 225 229 230 232 233 234 231
77 90 87 99 112 125 134 155 153 159 177 186 189 187 185 192 192 194 196 197 198 200 199 193 194 194 194 192 191 193 195 196 197 197 198 201 202 203 205 205 209 214 217 219 222 221 220 219 218 218 221 225 225 210 202 202 203 204 199 201 214 221 226 229 227 224 224 226 225 224 226 230 230 227 223 213 213 219 225 228 231 234 236 236 237
74 77 80 80 79 78 76 81 74 78 90 186 195 182 185 188 192 196 197 199 200 204 204 196 195 194 193 191 191 192 194 196 196 197 200 202 203 205 207 201 207 212 213 216 219 219 220 220 219 217 220 225 228 213 201 202 202 200 188 206 212 221 228 231 232 228 226 225 224 224 225 230 230 231 223 211 212 209 225 227 230 236 237 239 241
71 69 69 68 68 68 61 64 72 63 48 31 42 161 180 188 193 196 196 203 203 208 205 199 196 193 191 191 192 192 193 195 197 200 200 202 204 204 204 198 204 207 213 216 216 220 222 222 220 221 219 224 226 212 196 199 198 192 191 203 211 217 226 230 234 233 230 229 226 223 223 227 230 232 222 212 208 204 223 229 231 236 242 243 244
59 61 65 66 70 73 70 58 54 49 28 32 43 52 86 142 204 203 198 202 209 209 202 203 197 191 192 191 191 193 194 195 198 201 199 199 201 202 202 198 205 207 213 213 211 216 220 222 222 223 221 222 226 208 187 190 192 191 195 209 209 217 225 228 231 236 234 234 232 226 224 226 229 231 223 216 209 202 221 226 229 234 242 245 243
51 51 59 64 62 57 51 48 47 37 21 34 37 53 57 49 28 225 225 226 220 210 200 196 191 190 193 192 191 192 195 196 199 199 198 200 200 200 199 200 205 207 211 211 212 215 217 219 217 218 218 217 218 212 184 189 189 193 194 201 211 215 223 226 228 232 235 234 232 232 225 223 229 232 228 221 213 204 215 226 227 234 241 248 243
45 41 40 50 53 60 60 55 49 35 28 23 27 41 36 22 18 47 9 262 248 226 213 205 191 186 187 191 194 195 195 198 198 197 197 197 195 197 197 198 202 204 208 212 214 216 219 222 216 214 216 213 209 208 189 186 191 193 198 199 211 214 219 221 226 230 231 234 232 230 234 220 220 228 230 230 223 213 214 223 228 234 236 245 243
43 39 37 43 49 48 50 40 30 34 31 26 29 37 27 21 28 16 339 309 301 259 208 191 195 195 190 188 190 194 196 197 197 195 196 198 195 194 195 197 199 200 205 210 212 215 219 222 219 212 214 214 202 199 183 192 191 196 197 200 207 215 211 216 226 231 231 235 234 234 234 223 217 221 226 230 231 225 220 225 237 238 243 247 247
40 37 29 35 40 38 41 40 30 27 22 26 33 36 25 18 19 347 323 320 318 304 225 200 188 189 194 190 190 187 188 192 195 194 194 196 189 191 192 192 195 199 204 208 211 212 216 222 219 216 211 207 196 199 184 188 198 195 198 200 208 212 208 213 223 230 224 232 230 235 237 229 223 224 225 229 232 231 225 228 237 242 245 247 248
51 54 48 46 51 47 46 38 29 22 23 25 33 29 19 16 359 330 327 327 326 318 261 212 205 194 186 192 189 190 189 190 188 187 191 191 189 190 189 191 194 196 200 206 208 208 212 217 220 218 215 202 195 192 194 188 191 199 198 200 207 217 213 213 219 230 222 225 234 236 273 288 258 247 241 238 239 238 237 236 236 241 244 246 247
41 40 41 47 57 58 49 40 34 28 26 29 31 30 18 7 339 334 335 333 323 322 278 213 213 204 196 191 184 184 188 187 185 181 184 186 186 184 191 194 193 197 199 203 204 199 207 212 214 213 206 204 193 199 200 200 194 193 198 201 207 211 219 220 228 238 245 308 29 349 347 344 303 262 246 242 248 248 245 252 255 255 257 263 259
40 33 31 40 38 42 42 32 24 24 24 27 26 30 21 342 333 341 336 332 325 323 306 234 209 191 184 172 178 185 185 183 176 180 182 182 181 185 191 189 190 195 196 198 197 192 202 204 210 206 197 196 199 191 91 71 139 174 204 222 225 236 245 251 259 281 302 299 294 299 302 298 306 329 287 248 244 248 240 241 246 249 249 248 250
24 20 25 34 37 38 36 33 27 3 14 17 19 17 6 347 352 342 340 334 329 323 322 248 197 178 164 163 167 170 163 154 159 163 173 180 184 186 186 181 185 189 189 190 182 185 193 196 207 198 192 193 146 70 91 85 93 138 158 172 177 202 195 193 234 250 261 265 273 273 273 272 275 276 271 268 272 288 292 279 270 251 244 250 254
22 21 29 38 39 39 32 31 18 358 357 10 10 1 346 354 355 346 341 337 333 328 321 274 207 177 168 166 165 157 144 127 104 101 120 140 157 178 180 178 182 180 177 187 183 189 193 196 202 192 181 138 98 95 88 129 113 120 123 130 154 163 169 189 209 228 241 291 300 329 324 327 315 310 303 307 299 283 261 270 268 259 253 246 252
18 15 29 38 42 34 29 33 8 358 359 5 359 351 339 347 350 342 344 337 330 324 326 322 210 173 165 160 151 137 124 115 97 78 64 48 6 357 355 90 26 353 203 183 185 192 197 189 175 175 162 122 126 137 175 43 75 75 129 139 142 139 125 104 93 78 73 88 50 46 28 9 19 347 331 325 325 317 309 297 291 287 277 269 269
14 21 29 29 28 32 32 23 359 357 358 0 348 345 339 332 337 337 336 338 323 321 323 344 337 162 144 132 120 111 115 118 119 113 100 77 59 58 38 32 357 3 11 342 160 174 157 138 107 42 303 175 165 141 111 103 93 87 84 93 102 105 114 120 136 145 120 92 65 58 34 18 7 10 353 342 332 331 322 318 312 309 304 298 290
26 40 24 28 27 31 33 23 6 357 7 352 344 335 327 322 324 325 327 321 317 311 315 341 3 114 144 130 118 118 121 120 122 119 113 106 88 49 42 40 50 70 65 60 75 86 82 93 120 111 54 76 109 120 124 120 103 100 104 105 104 106 108 117 149 122 49 59 49 54 22 15 11 7 352 329 323 324 319 317 315 315 307 301 299